DW9628 Weather Reports


Display with metric or nautical units.
time (UTC)temp
F
wind
direction
speed
MPH
gust
MPH
rain 1hr
in
rain 24hr
in
rain mn
in
humidity
%
barometer
mb
20260505183017 63 209 0.0 0.0 0.00 0.00 0.00 40 991.9
20260505181513 63 223 0.0 0.0 0.00 0.00 0.00 43 992.1
20260505180009 62 217 0.0 0.0 0.00 0.00 0.00 40 992.1
20260505174508 61 191 0.0 0.0 0.00 0.00 0.00 44 992.2
20260505173007 61 208 0.0 0.0 0.00 0.00 0.00 41 992.3
20260505171508 61 220 0.0 0.0 0.00 0.00 0.00 43 992.3
20260505170005 60 212 0.0 0.0 0.00 0.00 0.00 47 992.3
20260505164506 59 227 0.0 0.0 0.00 0.00 0.00 47 992.2
20260505163008 58 219 0.0 0.0 0.00 0.00 0.00 47 992.2
20260505161504 57 221 0.0 0.0 0.00 0.00 0.00 51 992.1
20260505153113 56 244 0.0 0.0 0.00 0.00 0.00 52 991.8
20260505151558 57 272 0.0 0.0 0.00 0.00 0.00 49 991.8
20260505114531 57 333 0.0 0.0 0.00 0.00 0.00 45 989.9
20260505113033 57 333 0.0 0.0 0.00 0.00 0.00 46 989.8
20260505111529 57 332 0.0 0.0 0.00 0.00 0.00 46 989.8
20260505101527 60 325 0.0 0.0 0.00 0.00 0.00 39 989.4
20260505100026 59 311 0.0 0.0 0.00 0.00 0.00 41 989.3
20260505094525 57 310 0.0 0.0 0.00 0.00 0.00 44 989.4
20260505093023 58 310 0.0 0.0 0.00 0.00 0.00 43 989.3
20260505091521 59 310 0.0 0.0 0.00 0.00 0.00 41 989.3
20260505090020 58 301 0.0 0.0 0.00 0.00 0.00 42 989.3
20260505084534 60 273 0.0 0.0 0.00 0.00 0.00 39 989.4
20260505083015 60 272 0.0 0.0 0.00 0.00 0.00 38 989.5
20260505081518 60 281 0.0 0.0 0.00 0.00 0.00 37 989.6
20260505080012 61 283 0.0 0.0 0.00 0.00 0.00 38 989.7
20260505074512 61 236 0.0 0.0 0.00 0.00 0.00 39 989.7
20260505073010 60 212 0.0 0.0 0.00 0.00 0.00 41 989.8
20260505071508 61 201 0.0 0.0 0.00 0.00 0.00 39 989.8
20260505070006 61 184 0.0 0.0 0.00 0.00 0.00 40 989.9
20260505064505 61 155 0.0 0.0 0.00 0.00 0.00 38 989.7
20260505063005 61 5 0.0 0.0 0.00 0.00 0.00 37 989.7
20260505061507 61 5 0.0 0.0 0.00 0.00 0.00 37 989.7
20260505060004 62 5 0.0 0.0 0.00 0.00 0.00 36 989.7
20260505054504 62 355 0.0 0.0 0.00 0.00 0.00 36 989.4
20260505053005 62 351 0.0 0.0 0.00 0.00 0.00 37 989.5
20260505051503 63 355 0.0 0.0 0.00 0.00 0.00 38 989.4
20260505041503 64 350 0.0 0.0 0.00 0.00 0.00 37 988.6
20260505040001 64 360 0.0 0.0 0.00 0.00 0.00 38 988.4
20260505034619 64 355 0.0 0.0 0.00 0.00 0.00 37 988.0
20260505033108 65 61 0.0 0.0 0.00 0.00 0.00 36 987.7
20260505031559 65 5 0.0 0.0 0.00 0.00 0.00 35 987.4
20260505024559 66 342 0.0 0.0 0.00 0.00 0.00 33 987.2
20260505023102 67 350 0.0 0.0 0.00 0.00 0.00 33 987.2
20260505021600 67 336 0.0 0.0 0.00 0.00 0.00 33 987.0
20260505020100 68 323 0.0 0.0 0.00 0.00 0.00 33 987.2
20260505014556 69 334 0.0 0.0 0.00 0.00 0.00 29 987.1
20260505013056 70 331 0.0 0.0 0.00 0.00 0.00 27 987.3
20260505011610 70 340 0.0 0.0 0.00 0.00 0.00 27 987.5
20260505010054 70 9 0.0 0.0 0.00 0.00 0.00 26 987.3
20260505004604 70 355 0.0 0.0 0.00 0.00 0.00 27 987.5
20260505003056 71 5 0.0 0.0 0.00 0.00 0.00 26 987.4
20260505001606 71 5 0.0 0.0 0.00 0.00 0.00 25 987.5
20260505000106 71 11 0.0 0.0 0.00 0.00 0.00 26 987.5
20260504234556 71 5 0.0 0.0 0.00 0.00 0.00 25 987.6
20260504233103 71 232 0.0 0.0 0.00 0.00 0.00 30 987.2
20260504231549 72 123 0.0 0.0 0.00 0.00 0.00 30 987.6
20260504230047 72 349 0.0 0.0 0.00 0.00 0.00 18 987.8
20260504224545 72 314 0.0 0.0 0.00 0.00 0.00 20 987.8
20260504223042 71 34 0.0 0.0 0.00 0.00 0.00 33 988.0
20260504221542 71 64 0.0 0.0 0.00 0.00 0.00 30 988.1
20260504220040 70 46 0.0 0.0 0.00 0.00 0.00 32 988.3
20260504214540 71 113 0.0 0.0 0.00 0.00 0.00 29 988.3
20260504213038 71 157 0.0 0.0 0.00 0.00 0.00 30 988.3
20260504211535 70 68 0.0 0.0 0.00 0.00 0.00 33 988.5
20260504210035 69 74 0.0 0.0 0.00 0.00 0.00 34 988.6
20260504204531 70 150 0.0 0.0 0.00 0.00 0.00 34 988.7
20260504203030 69 204 0.0 0.0 0.00 0.00 0.00 34 988.9
20260504201528 69 267 0.0 0.0 0.00 0.00 0.00 35 988.9
20260504200029 67 226 0.0 0.0 0.00 0.00 0.00 37 989.3
20260504194530 67 281 0.0 0.0 0.00 0.00 0.00 36 989.4
20260504193021 66 240 0.0 0.0 0.00 0.00 0.00 38 989.5
20260504191520 66 271 0.0 0.0 0.00 0.00 0.00 39 989.8
20260504190018 66 236 0.0 0.0 0.00 0.00 0.00 37 990.0
20260504184513 65 202 0.0 0.0 0.00 0.00 0.00 41 990.2